This demonstration page uses our WeatherBlox Daily Observations layout. Learn more.

Left ArrowRight Arrow

39.08367, -84.50855

Hourly Observations for September 9, 2017

Temp ( °F °C ) Dew Point ( °F °C ) Humidity (%) Winds ( mph kmh ) Pressure ( in mb ) Visibility ( mi km ) Precip ( " mm )
12:53 am 00:53 Cloudy 58 14.4 56 13.3 93 93 N N/A 30.29 1026 10 16 N/A
1:53 am 01:53 Cloudy 59 15 56 13.3 90 90 N N/A 30.29 1026 10 16 N/A
2:53 am 02:53 Cloudy 58 14.4 57 13.9 97 97 N N/A 30.29 1026 10 16 N/A
3:53 am 03:53 Cloudy 58 14.4 57 13.9 97 97 N N/A 30.29 1026 10 16 N/A
4:53 am 04:53 Cloudy 58 14.4 56 13.3 93 93 N N/A 30.30 1026 10 16 N/A
5:53 am 05:53 Cloudy 57 13.9 56 13.3 96 96 N 3 6 30.32 1027 10 16 N/A
6:53 am 06:53 Cloudy 58 14.4 56 13.3 93 93 N N/A 30.34 1027 10 16 N/A
7:53 am 07:53 Mostly Cloudy 58 14.4 54 12.2 87 87 NE 5 7 30.36 1028 10 16 N/A
8:53 am 08:53 Mostly Cloudy 61 16.1 54 12.2 78 78 NE 8 13 30.37 1029 10 16 N/A
9:53 am 09:53 Mostly Sunny 63 17.2 54 12.2 73 73 NE 10 17 30.39 1029 10 16 N/A
10:53 am 10:53 Mostly Sunny 66 18.9 53 11.7 63 63 NE 9 15 30.40 1030 10 16 N/A
11:53 am 11:53 Mostly Sunny 69 20.6 52 11.1 55 55 NE 10 17 30.40 1029 10 16 N/A
12:53 pm 12:53 Partly Cloudy 70 21.1 51 10.6 51 51 VRB 6 9 30.39 1029 10 16 N/A
1:53 pm 13:53 Partly Cloudy 70 21.1 52 11.1 53 53 E 8 13 30.37 1028 10 16 N/A
2:53 pm 14:53 Partly Cloudy 72 22.2 51 10.6 48 48 VRB 3 6 30.35 1028 10 16 N/A
3:53 pm 15:53 Partly Cloudy 73 22.8 49 9.4 43 43 E 9 15 30.33 1027 10 16 N/A
4:53 pm 16:53 Sunny 72 22.2 49 9.4 44 44 ENE 10 17 30.32 1027 10 16 N/A
5:53 pm 17:53 Mostly Sunny 72 22.2 48 8.9 43 43 ENE 13 20 30.32 1027 10 16 N/A
6:53 pm 18:53 Sunny 70 21.1 48 8.9 46 46 ENE 7 11 30.32 1027 10 16 N/A
7:53 pm 19:53 Sunny 63 17.2 48 8.9 58 58 NE 7 11 30.32 1027 10 16 N/A
8:53 pm 20:53 Clear 58 14.4 52 11.1 81 81 N N/A 30.34 1027 10 16 N/A
9:53 pm 21:53 Clear 55 12.8 52 11.1 90 90 ENE 3 6 30.35 1028 10 16 N/A
10:53 pm 22:53 Clear 53 11.7 50 10 89 89 NE 3 6 30.35 1028 10 16 N/A
11:53 pm 23:53 Clear 50 10 50 10 100 100 NE 5 7 30.36 1028 10 16 N/A

Powered by AerisWeather